VE3DVC Weather Reports


Display with metric or nautical units.
time (UTC)temp
F
wind
direction
speed
MPH
gust
MPH
rain 1hr
in
rain 24hr
in
rain mn
in
humidity
%
barometer
mb
20260507024850 43 0 0.0 0.0 0.00 0.02 0.02 76 1012.9
20260507023649 43 0 0.0 0.0 0.00 0.02 0.02 76 1013.0
20260507021626 44 0 0.0 0.0 0.00 0.02 0.02 75 1013.0
20260507020426 44 0 0.0 0.0 0.00 0.02 0.02 72 1012.8
20260507015227 45 0 0.0 0.0 0.00 0.02 0.02 69 1012.8
20260507014027 45 0 0.0 0.0 0.00 0.02 0.02 69 1012.9
20260507012826 46 0 0.0 0.0 0.00 0.03 0.02 65 1012.8
20260507011627 46 0 0.0 0.0 0.00 0.03 0.02 63 1012.9
20260507010427 47 0 0.0 0.0 0.00 0.03 0.02 60 1013.1
20260507005227 47 0 0.0 0.0 0.00 0.03 0.02 58 1012.9
20260507004027 48 0 0.0 0.0 0.00 0.03 0.02 60 1012.8
20260507002827 48 0 0.0 0.0 0.00 0.03 0.02 55 1012.7
20260507001627 48 0 0.0 2.0 0.00 0.03 0.02 56 1012.5
20260507000427 48 0 0.0 2.0 0.00 0.03 0.02 56 1012.4
20260506235226 48 0 0.0 2.0 0.00 0.03 0.02 56 1012.3
20260506234026 49 0 0.0 5.0 0.00 0.03 0.02 56 1012.2
20260506232827 49 0 0.0 3.0 0.00 0.03 0.02 57 1012.2
20260506231626 49 0 0.0 3.0 0.00 0.03 0.02 58 1012.2
20260506225926 50 0 0.0 6.0 0.00 0.03 0.02 57 1012.2
20260506224726 50 321 1.0 7.0 0.00 0.03 0.02 58 1012.1
20260506223526 51 0 0.0 3.0 0.00 0.03 0.02 59 1011.9
20260506222326 51 294 1.0 4.0 0.00 0.03 0.02 57 1011.8
20260506221126 52 310 1.0 5.0 0.00 0.03 0.02 57 1011.6
20260506215926 53 0 0.0 6.0 0.00 0.03 0.02 56 1011.4
20260506213828 53 0 0.0 5.0 0.00 0.03 0.02 57 1010.8
20260506211620 54 308 1.0 4.0 0.00 0.03 0.02 55 1010.6
20260506210420 54 0 0.0 5.0 0.00 0.03 0.02 53 1010.5
20260506205220 54 302 1.0 4.0 0.00 0.03 0.02 56 1010.4
20260506204021 54 0 0.0 3.0 0.00 0.03 0.02 55 1010.2
20260506202820 55 0 0.0 5.0 0.00 0.03 0.02 55 1010.3
20260506201621 54 319 1.0 4.0 0.00 0.03 0.02 57 1010.3
20260506200421 54 326 2.0 5.0 0.00 0.03 0.02 57 1010.2
20260506195220 53 309 1.0 4.0 0.00 0.03 0.02 59 1010.2
20260506194020 54 316 2.0 5.0 0.00 0.03 0.02 60 1010.2
20260506192820 54 325 1.0 4.0 0.00 0.02 0.01 59 1010.3
20260506191621 54 307 2.0 8.0 0.00 0.02 0.01 60 1010.2
20260506190421 54 321 2.0 6.0 0.00 0.02 0.01 61 1010.3
20260506185221 54 297 2.0 7.0 0.00 0.02 0.01 63 1010.2
20260506184021 54 291 1.0 6.0 0.00 0.03 0.01 64 1010.0
20260506182820 55 298 2.0 7.0 0.00 0.03 0.01 61 1010.0
20260506181621 56 306 2.0 7.0 0.00 0.03 0.01 62 1009.6
20260506180423 57 192 1.0 6.0 0.00 0.03 0.01 63 1009.4
20260506175221 56 309 1.0 4.0 0.00 0.03 0.01 69 1009.3
20260506174021 56 272 2.0 5.0 0.00 0.03 0.01 69 1009.3
20260506172820 56 276 2.0 6.0 0.00 0.03 0.01 71 1009.3
20260506171621 55 234 1.0 7.0 0.00 0.03 0.01 72 1009.3
20260506170420 55 309 1.0 5.0 0.00 0.03 0.01 73 1009.2
20260506165220 55 239 2.0 7.0 0.00 0.03 0.01 74 1009.4
20260506164021 55 228 1.0 9.0 0.00 0.03 0.01 78 1009.4
20260506162821 54 0 0.0 5.0 0.00 0.03 0.01 82 1009.4
20260506161620 54 252 2.0 5.0 0.00 0.03 0.01 76 1009.3
20260506160420 54 0 0.0 4.0 0.00 0.03 0.01 80 1009.1
20260506155220 53 0 0.0 4.0 0.00 0.03 0.01 87 1009.1
20260506154021 52 0 0.0 2.0 0.00 0.03 0.01 90 1009.2
20260506152820 51 0 0.0 4.0 0.00 0.03 0.01 91 1009.0
20260506151621 51 0 0.0 3.0 0.00 0.03 0.01 92 1009.3
20260506150420 50 0 0.0 1.0 0.00 0.03 0.01 91 1009.2
20260506145221 49 0 0.0 1.0 0.00 0.03 0.01 91 1009.0
20260506144021 49 0 0.0 2.0 0.00 0.03 0.01 91 1008.9
20260506142820 49 0 0.0 0.0 0.00 0.03 0.01 91 1009.0
20260506141620 48 0 0.0 0.0 0.00 0.03 0.01 91 1008.6
20260506140228 48 0 0.0 0.0 0.00 0.03 0.01 91 1008.6
20260506135027 48 0 0.0 0.0 0.00 0.03 0.01 91 1008.7
20260506133827 47 0 0.0 1.0 0.00 0.03 0.01 91 1008.8
20260506131536 47 0 0.0 0.0 0.00 0.03 0.01 91 1008.7
20260506130336 47 0 0.0 0.0 0.00 0.03 0.01 91 1008.7
20260506123936 47 0 0.0 0.0 0.00 0.03 0.01 91 1008.4
20260506122736 47 0 0.0 0.0 0.00 0.03 0.00 91 1008.0
20260506121536 47 0 0.0 0.0 0.00 0.03 0.00 91 1008.1
20260506120336 47 0 0.0 0.0 0.00 0.03 0.00 91 1007.9
20260506115136 47 0 0.0 0.0 0.00 0.03 0.00 91 1008.0
20260506112940 47 0 0.0 0.0 0.00 0.03 0.00 91 1008.0
20260506111740 47 0 0.0 0.0 0.00 0.03 0.00 91 1007.9
20260506110539 47 0 0.0 0.0 0.00 0.03 0.00 91 1007.7
20260506105339 47 0 0.0 0.0 0.00 0.03 0.00 91 1007.5
20260506104140 47 0 0.0 0.0 0.00 0.03 0.00 91 1007.0
20260506102940 48 0 0.0 0.0 0.00 0.03 0.00 91 1007.0
20260506101739 48 0 0.0 0.0 0.00 0.03 0.00 91 1007.2
20260506100540 48 0 0.0 0.0 0.00 0.04 0.00 91 1007.7
20260506095339 48 0 0.0 0.0 0.00 0.04 0.00 91 1007.5
20260506094140 48 0 0.0 0.0 0.00 0.04 0.00 91 1007.6
20260506092939 48 0 0.0 0.0 0.00 0.04 0.00 91 1007.3
20260506091739 48 0 0.0 0.0 0.00 0.05 0.00 91 1007.2
20260506090540 48 0 0.0 0.0 0.00 0.05 0.00 91 1007.9
20260506085339 48 0 0.0 0.0 0.00 0.05 0.00 91 1008.0
20260506084139 48 0 0.0 0.0 0.00 0.06 0.00 91 1007.7
20260506082939 48 0 0.0 0.0 0.00 0.06 0.00 91 1007.8
20260506080540 48 0 0.0 0.0 0.00 0.07 0.00 91 1007.8
20260506072939 48 0 0.0 0.0 0.00 0.08 0.00 91 1007.4
20260506071739 48 0 0.0 0.0 0.00 0.08 0.00 91 1007.4
20260506070540 48 0 0.0 0.0 0.00 0.09 0.00 91 1007.7
20260506061740 48 0 0.0 0.0 0.00 0.11 0.00 91 1007.6
20260506060539 48 0 0.0 0.0 0.00 0.11 0.00 91 1007.7
20260506050539 48 0 0.0 0.0 0.00 0.12 0.00 91 1008.2
20260506044140 49 0 0.0 0.0 0.00 0.14 0.00 91 1008.3
20260506042939 49 0 0.0 0.0 0.00 0.14 0.00 91 1008.5
20260506041739 49 0 0.0 0.0 0.00 0.14 0.00 91 1008.5
20260506040539 49 0 0.0 0.0 0.00 0.15 0.00 91 1008.6
20260506035339 49 0 0.0 0.0 0.00 0.15 0.00 91 1008.6
20260506034140 49 0 0.0 0.0 0.00 0.16 0.00 91 1008.6
20260506031739 49 0 0.0 0.0 0.00 0.16 0.15 92 1008.2